FW0717 Weather Reports


Display with metric or nautical units.
time (UTC)temp
F
wind
direction
speed
MPH
gust
MPH
rain 1hr
in
rain 24hr
in
rain mn
in
humidity
%
barometer
mb
20260506073504 77 182 2.0 7.0 0.00 0.01 0.00 87 1008.3
20260506073005 77 130 1.0 7.0 0.00 0.01 0.00 87 1008.3
20260506072506 77 136 3.0 6.0 0.00 0.01 0.00 87 1008.4
20260506072010 77 133 1.0 6.0 0.00 0.01 0.00 87 1008.4
20260506071504 77 193 3.0 7.0 0.00 0.01 0.00 87 1008.5
20260506071005 77 126 3.0 6.0 0.00 0.01 0.00 87 1008.5
20260506070507 77 174 2.0 5.0 0.00 0.01 0.00 87 1008.6
20260506062006 77 144 1.0 7.0 0.00 0.01 0.00 87 1008.7
20260506061505 77 158 3.0 8.0 0.00 0.01 0.00 87 1008.7
20260506061006 77 146 2.0 8.0 0.00 0.01 0.00 87 1008.6
20260506060507 77 184 2.0 5.0 0.00 0.01 0.00 87 1008.6
20260506051006 77 181 1.0 8.0 0.00 0.01 0.00 86 1008.7
20260506050510 77 184 2.0 8.0 0.00 0.01 0.00 86 1008.8
20260506045006 77 182 2.0 8.0 0.00 0.01 0.01 85 1008.7
20260506044506 78 137 3.0 9.0 0.00 0.01 0.01 85 1008.7
20260506044005 78 169 1.0 10.0 0.00 0.01 0.01 85 1008.6
20260506043505 78 173 7.0 10.0 0.00 0.01 0.01 85 1008.6
20260506043006 78 169 2.0 6.0 0.00 0.01 0.01 85 1008.7
20260506042506 78 175 6.0 9.0 0.00 0.01 0.01 85 1008.8
20260506041504 78 173 3.0 8.0 0.00 0.01 0.01 84 1008.6
20260506041005 78 164 9.0 9.0 0.00 0.01 0.01 84 1008.5
20260506040506 78 107 1.0 11.0 0.00 0.01 0.01 84 1008.3
20260506040007 78 169 4.0 11.0 0.00 0.01 0.01 84 1008.4
20260506035504 78 139 4.0 11.0 0.00 0.01 0.01 84 1008.5
20260506035006 78 127 5.0 7.0 0.00 0.01 0.01 84 1008.4
20260506034504 78 148 2.0 8.0 0.00 0.01 0.01 84 1008.4
20260506033504 78 128 2.0 10.0 0.00 0.01 0.01 84 1008.0
20260506033006 78 121 3.0 7.0 0.00 0.01 0.01 83 1008.2
20260506032506 78 164 4.0 9.0 0.00 0.01 0.01 83 1008.2
20260506032005 78 161 5.0 9.0 0.00 0.01 0.01 83 1008.2
20260506031505 78 157 2.0 5.0 0.00 0.01 0.01 83 1008.1
20260506031005 78 186 2.0 7.0 0.00 0.01 0.01 83 1008.1
20260506030506 79 182 1.0 7.0 0.00 0.01 0.01 83 1008.0
20260506030009 79 160 1.0 7.0 0.00 0.01 0.01 83 1008.1
20260506025005 79 205 1.0 9.0 0.00 0.01 0.01 83 1007.8
20260506024507 79 145 1.0 9.0 0.00 0.01 0.01 82 1007.7
20260506024005 79 155 3.0 6.0 0.00 0.01 0.01 82 1007.5
20260506023504 79 144 2.0 9.0 0.00 0.01 0.01 82 1007.4
20260506022506 79 131 2.0 9.0 0.00 0.01 0.01 82 1007.3
20260506022004 79 135 2.0 6.0 0.00 0.01 0.01 81 1007.3
20260506021506 79 192 1.0 9.0 0.00 0.01 0.01 81 1007.2
20260506021005 79 143 3.0 10.0 0.00 0.01 0.01 81 1007.1
20260506020509 79 127 1.0 7.0 0.00 0.01 0.01 80 1007.0
20260506020011 79 162 2.0 9.0 0.00 0.01 0.01 79 1007.0
20260506015505 80 162 4.0 9.0 0.00 0.01 0.01 79 1007.0
20260506014509 80 170 1.0 8.0 0.00 0.01 0.01 78 1006.9
20260506014004 80 139 1.0 8.0 0.00 0.01 0.01 78 1006.7
20260506013504 80 198 1.0 8.0 0.00 0.01 0.01 78 1006.7
20260506013005 80 155 2.0 14.0 0.00 0.01 0.01 78 1006.7
20260506012506 80 165 0.0 14.0 0.00 0.01 0.01 78 1006.6
20260506012004 80 169 2.0 8.0 0.00 0.01 0.01 78 1006.5
20260506011506 80 177 3.0 9.0 0.00 0.01 0.01 78 1006.4
20260506011005 80 132 1.0 7.0 0.00 0.01 0.01 78 1006.3
20260506010507 80 148 3.0 8.0 0.00 0.01 0.01 78 1006.2
20260506010010 80 122 1.0 8.0 0.00 0.01 0.01 78 1006.1
20260506005504 80 175 2.0 9.0 0.00 0.01 0.01 77 1006.2
20260506005005 80 159 1.0 9.0 0.00 0.01 0.01 77 1006.2
20260506004504 80 178 1.0 14.0 0.00 0.01 0.01 77 1006.1
20260506004004 81 164 2.0 14.0 0.00 0.01 0.01 77 1006.0
20260506003505 81 135 2.0 8.0 0.00 0.01 0.01 77 1006.0
20260506003005 81 187 4.0 9.0 0.00 0.01 0.01 77 1006.0
20260506002506 81 208 1.0 8.0 0.00 0.01 0.01 77 1006.1
20260506002005 81 155 3.0 8.0 0.00 0.01 0.01 77 1006.0
20260506001005 81 191 6.0 12.0 0.00 0.01 0.01 77 1005.9
20260506000504 81 160 4.0 9.0 0.00 0.01 0.01 77 1005.8
20260506000007 82 179 2.0 11.0 0.00 0.01 0.01 77 1006.0
20260505235005 82 177 2.0 10.0 0.00 0.01 0.01 77 1006.0
20260505234506 82 177 2.0 10.0 0.00 0.01 0.01 76 1005.9
20260505234004 82 185 4.0 11.0 0.00 0.01 0.01 76 1005.9
20260505233005 82 148 4.0 10.0 0.00 0.01 0.01 76 1005.9
20260505232505 82 124 3.0 10.0 0.00 0.01 0.01 75 1005.8
20260505231504 82 167 5.0 10.0 0.00 0.01 0.01 75 1006.0
20260505231005 83 168 5.0 9.0 0.00 0.01 0.01 74 1005.9
20260505230505 83 154 2.0 9.0 0.00 0.01 0.01 74 1006.0
20260505230007 83 190 3.0 9.0 0.01 0.01 0.01 73 1005.9
20260505225504 83 193 4.0 8.0 0.01 0.01 0.01 73 1005.8
20260505225008 84 179 6.0 8.0 0.01 0.01 0.01 73 1005.8
20260505224505 84 117 3.0 8.0 0.01 0.01 0.01 74 1005.7
20260505224004 84 194 5.0 9.0 0.01 0.01 0.01 74 1005.7
20260505223504 84 169 2.0 11.0 0.01 0.01 0.01 74 1005.7
20260505223005 84 162 2.0 11.0 0.01 0.01 0.01 73 1005.8
20260505222505 84 173 0.0 9.0 0.01 0.01 0.01 74 1006.0
20260505222004 84 225 5.0 9.0 0.01 0.01 0.01 73 1005.9
20260505221503 84 158 3.0 15.0 0.01 0.01 0.01 74 1005.9
20260505221005 84 177 0.0 15.0 0.01 0.01 0.01 74 1005.9
20260505220504 84 155 1.0 10.0 0.01 0.01 0.01 75 1006.0
20260505220006 84 105 6.0 9.0 0.00 0.00 0.00 73 1006.0
20260505215005 84 256 2.0 10.0 0.00 0.00 0.00 72 1006.3
20260505214505 85 223 3.0 10.0 0.00 0.00 0.00 73 1006.4
20260505213508 84 213 4.0 8.0 0.00 0.00 0.00 73 1006.4
20260505213005 84 217 3.0 7.0 0.00 0.00 0.00 73 1006.5
20260505212505 84 200 2.0 7.0 0.00 0.00 0.00 72 1006.6
20260505211504 84 273 2.0 10.0 0.00 0.00 0.00 73 1006.6
20260505211005 84 215 6.0 10.0 0.00 0.00 0.00 73 1006.7
20260505210007 84 192 3.0 12.0 0.00 0.00 0.00 72 1006.9
20260505205503 84 159 5.0 9.0 0.00 0.00 0.00 73 1006.8
20260505205005 84 181 0.0 9.0 0.00 0.00 0.00 73 1006.8
20260505204503 84 183 5.0 8.0 0.00 0.00 0.00 73 1007.0
20260505204004 84 190 3.0 10.0 0.00 0.00 0.00 73 1007.0
20260505203504 84 153 5.0 9.0 0.00 0.00 0.00 74 1007.2
20260505203005 83 196 2.0 8.0 0.00 0.00 0.00 74 1007.2
20260505202505 84 155 2.0 9.0 0.00 0.00 0.00 75 1007.3
20260505200504 85 180 8.0 9.0 0.00 0.00 0.00 73 1007.4
20260505200006 85 190 3.0 8.0 0.00 0.00 0.00 74 1007.4
20260505195507 84 226 3.0 8.0 0.00 0.00 0.00 74 1007.6
20260505194505 84 182 4.0 13.0 0.00 0.00 0.00 73 1007.7
20260505194004 84 235 5.0 11.0 0.00 0.00 0.00 74 1007.8
20260505193503 83 215 3.0 9.0 0.00 0.00 0.00 76 1007.9
20260505193005 82 182 4.0 14.0 0.00 0.00 0.00 77 1007.9
20260505192505 82 219 5.0 14.0 0.00 0.00 0.00 77 1007.9
20260505191007 82 205 2.0 12.0 0.00 0.00 0.00 76 1008.0
20260505190505 82 190 2.0 12.0 0.00 0.00 0.00 75 1008.0
20260505185503 82 198 2.0 12.0 0.00 0.00 0.00 75 1008.1
20260505185005 82 184 3.0 9.0 0.00 0.00 0.00 76 1008.1
20260505184505 82 198 4.0 11.0 0.00 0.00 0.00 76 1008.2
20260505184004 82 232 5.0 11.0 0.00 0.00 0.00 76 1008.2
20260505183005 82 189 2.0 7.0 0.00 0.00 0.00 77 1008.3
20260505182505 81 225 2.0 10.0 0.00 0.00 0.00 77 1008.5
20260505182004 81 171 6.0 14.0 0.00 0.00 0.00 78 1008.3
20260505181503 81 184 3.0 14.0 0.00 0.00 0.00 78 1008.4
20260505180505 80 184 1.0 7.0 0.00 0.00 0.00 79 1008.4
20260505180007 80 185 5.0 7.0 0.00 0.00 0.00 78 1008.4
20260505175503 81 184 3.0 8.0 0.00 0.00 0.00 78 1008.4
20260505175005 81 165 5.0 9.0 0.00 0.00 0.00 77 1008.5
20260505174004 81 202 1.0 10.0 0.00 0.00 0.00 77 1008.6
20260505173503 81 202 2.0 6.0 0.00 0.00 0.00 79 1008.6
20260505172504 80 219 2.0 12.0 0.00 0.00 0.00 80 1008.7
20260505172006 80 174 1.0 7.0 0.00 0.00 0.00 80 1008.8
20260505171503 80 177 1.0 10.0 0.00 0.00 0.00 80 1008.8
20260505171005 79 161 2.0 9.0 0.00 0.00 0.00 80 1008.9
20260505170504 79 171 5.0 9.0 0.00 0.00 0.00 81 1008.9
20260505170008 79 223 3.0 7.0 0.00 0.00 0.00 81 1008.8
20260505165503 78 165 5.0 7.0 0.00 0.00 0.00 81 1008.9
20260505165014 79 131 2.0 7.0 0.00 0.00 0.00 81 1008.9
20260505164504 79 200 1.0 7.0 0.00 0.00 0.00 81 1009.0
20260505164004 79 227 5.0 7.0 0.00 0.00 0.00 81 1009.0
20260505163004 79 188 1.0 8.0 0.00 0.00 0.00 81 1009.0
20260505162504 79 201 2.0 7.0 0.00 0.00 0.00 81 1009.0
20260505162003 78 196 3.0 5.0 0.00 0.00 0.00 81 1008.9
20260505161503 78 182 2.0 5.0 0.00 0.00 0.00 81 1008.9
20260505161004 78 213 2.0 8.0 0.00 0.00 0.00 81 1008.9
20260505160504 78 171 6.0 9.0 0.00 0.00 0.00 82 1008.8
20260505153004 77 215 2.0 9.0 0.00 0.00 0.00 82 1008.6
20260505152504 77 180 4.0 9.0 0.00 0.00 0.00 82 1008.7
20260505152003 77 213 2.0 7.0 0.00 0.00 0.00 82 1008.7
20260505151004 78 152 3.0 7.0 0.00 0.00 0.00 82 1008.6
20260505140506 76 220 3.0 6.0 0.00 0.00 0.00 84 1008.4
20260505125005 74 151 3.0 7.0 0.00 0.00 0.00 87 1007.8
20260505124005 73 165 2.0 5.0 0.00 0.00 0.00 87 1007.8
20260505123504 73 178 1.0 5.0 0.00 0.00 0.00 87 1008.3
20260505123008 73 184 0.0 5.0 0.00 0.00 0.00 87 1008.1
20260505122504 73 166 4.0 6.0 0.00 0.00 0.00 87 1008.1
20260505122005 73 191 1.0 4.0 0.00 0.00 0.00 87 1008.2
20260505121507 72 188 0.0 4.0 0.00 0.00 0.00 87 1008.1
20260505121005 72 188 2.0 5.0 0.00 0.00 0.00 87 1008.1
20260505120506 72 188 2.0 5.0 0.00 0.00 0.00 88 1008.1
20260505120007 72 178 0.0 5.0 0.00 0.00 0.00 88 1007.9
20260505115504 72 159 1.0 6.0 0.00 0.00 0.00 88 1007.7
20260505115005 72 150 4.0 5.0 0.00 0.00 0.00 87 1007.6
20260505114506 72 196 0.0 7.0 0.00 0.00 0.00 87 1007.7
20260505114004 72 185 4.0 7.0 0.00 0.00 0.00 87 1007.9
20260505113505 72 175 1.0 8.0 0.00 0.00 0.00 87 1007.9
20260505112005 72 219 5.0 7.0 0.00 0.00 0.00 87 1007.9
20260505111504 72 165 4.0 7.0 0.00 0.00 0.00 87 1007.8
20260505111009 72 192 3.0 5.0 0.00 0.00 0.00 87 1007.7
20260505110506 72 190 0.0 5.0 0.00 0.00 0.00 87 1007.7
20260505102004 71 169 1.0 6.0 0.00 0.00 0.00 87 1007.8
20260505101504 71 168 1.0 6.0 0.00 0.00 0.00 87 1007.8
20260505100505 71 130 1.0 9.0 0.00 0.00 0.00 87 1008.0
20260505095504 71 169 1.0 4.0 0.00 0.00 0.00 87 1008.0
20260505095005 71 170 0.0 4.0 0.00 0.00 0.00 87 1007.9
20260505093504 71 169 0.0 5.0 0.00 0.00 0.00 87 1008.0
20260505093005 71 167 1.0 7.0 0.00 0.00 0.00 87 1008.0
20260505092005 71 167 3.0 6.0 0.00 0.00 0.00 87 1008.2
20260505091504 71 168 0.0 6.0 0.00 0.00 0.00 87 1008.2
20260505091010 71 165 1.0 6.0 0.00 0.00 0.00 87 1008.2
20260505090007 71 165 1.0 5.0 0.00 0.00 0.00 86 1008.1
20260505085504 71 165 2.0 6.0 0.00 0.00 0.00 86 1008.1
20260505085005 71 165 2.0 6.0 0.00 0.00 0.00 86 1008.2
20260505084505 71 154 0.0 6.0 0.00 0.00 0.00 86 1008.2
20260505084004 71 197 1.0 7.0 0.00 0.00 0.00 85 1008.2
20260505083504 71 198 0.0 7.0 0.00 0.00 0.00 85 1008.4
20260505083005 71 192 2.0 6.0 0.00 0.00 0.00 85 1008.3
20260505082505 71 187 1.0 6.0 0.00 0.00 0.00 85 1008.4
20260505082005 71 172 2.0 6.0 0.00 0.00 0.00 85 1008.5
20260505081505 71 194 3.0 5.0 0.00 0.00 0.00 85 1008.4
20260505081005 71 167 1.0 5.0 0.00 0.00 0.00 85 1008.6
20260505080507 71 173 2.0 6.0 0.00 0.00 0.00 85 1008.6
20260505080007 71 163 4.0 6.0 0.00 0.00 0.00 85 1008.5
20260505075506 71 225 2.0 8.0 0.00 0.00 0.00 85 1008.5
20260505075005 71 200 2.0 8.0 0.00 0.00 0.00 84 1008.5
20260505074509 71 180 2.0 5.0 0.00 0.00 0.00 84 1008.5